Location: Columbia
(38.9520°N, 92.3340°W)
Time: 11:08:35
(UTC-06:00)

Tiangong 1 - Visible Passes

Search period start: 11 December 2017 00:00
Search period end: 21 December 2017 00:00
Orbit: 276 x 303 km, 42.8° (Epoch: 10 December)

Date Brightness Start Highest point End Pass type
(mag) Time Alt. Az. Time Alt. Az. Time Alt. Az.
18 Dec 3.7 06:07:40 10° S 06:09:01 14° SE 06:10:25 10° ESE visible
19 Dec 2.6 06:10:42 10° SSW 06:12:52 26° SSE 06:15:04 10° E visible
20 Dec 1.2 06:14:49 15° SW 06:16:41 52° SSE 06:19:10 10° ENE visible
